Location: La Pernelle
(49.6188°N, 1.2999°W)
Time: 17:05:43
(UTC+00:00)

SL-16 R/B - Pass Details

Date: 26 October 2021
Orbit: 842 x 846 km, 71.0° (Epoch: 28 November)

Event Time Altitude Azimuth Distance (km) Brightness Sun altitude
Rises 17:23:11 0° 186° (S) 3,388 5.6 -5.5°
Reaches altitude 10° 17:25:42 10° 180° (S) 2,458 4.8 -5.9°
Maximum altitude 17:31:03 45° 109° (ESE) 1,134 2.5 -6.7°
Drops below altitude 10° 17:36:25 10° 39° (NE) 2,476 4.2 -7.6°
Sets 17:38:58 0° 33° (NNE) 3,416 4.9 -8.0°
